[[{"header":{"parameterUnit":"m.s-1","parameterCategory":1,"la1":30.2991,"la2":30.254,"lo1":-89.0895,"lo2":-89.0444,"dy":0.0017,"dx":0.0017,"nx":28,"ny":28,"refTime":"2024-05-04T21:00:00:Z","depth":0,"parameterNumber":2,"parameterNumberName":"U-component_of_WINDS"},"data":[0,0,0,0,0,0,0,0,0,0,0,0,0,0,0,0,0,0,0,0,0,0,0,0,0,0,0,0,0,0,0,0,0,0,0,0,0,0,0,0,0,0,0,0,0,0,0,0,0,0,0,0,0,0,0,0,0,0,-2.5246,-2.5247,0,-2.5325,-2.5326,-2.5326,-2.5301,-2.5299,-2.5297,-2.5296,-2.5377,-2.5381,-2.5385,0,0,0,0,0,0,0,0,0,0,0,0,0,-2.5075,-2.5078,-2.5246,-2.5247,-2.5248,-2.5324,-2.5326,-2.5327,-2.5301,-2.5299,-2.5297,-2.5295,-2.5376,-2.538,-2.5385,0,0,0,0,0,0,0,0,0,0,0,0,0,-2.5151,-2.5079,-2.5246,-2.5244,-2.5245,-2.5324,-2.5326,-2.5327,-2.5302,-2.5299,-2.5296,-2.5294,-2.5375,-2.538,-2.5386,-2.5471,0,0,-2.5403,-2.5405,0,0,0,0,0,0,0,0,-2.5146,-2.5157,-2.5244,-2.5245,-2.5245,-2.53,-2.5295,-2.5375,-2.5302,-2.528,-2.5296,-2.5293,-2.5354,-2.5361,-2.5381,-2.5475,-2.5478,-2.5403,-2.5407,-2.5409,-2.5411,0,0,0,0,0,0,0,-2.5141,-2.5154,-2.5277,-2.5245,-2.5246,-2.524,-2.5248,-2.531,-2.533,-2.5282,-2.528,-2.529,-2.5354,-2.5376,-2.5383,-2.548,-2.5403,-2.5408,-2.5412,-2.5414,-2.5647,-2.565,0,0,0,0,0,0,-2.5135,-2.5149,-2.5275,-2.5279,-2.5189,-2.5245,-2.5254,-2.5285,-2.533,-2.5334,-2.5292,-2.5288,-2.5368,-2.5376,-2.5386,-2.5488,-2.5409,-2.5414,-2.5417,-2.5644,-2.5648,-2.5651,0,0,0,0,0,0,-2.5132,-2.5147,-2.5271,-2.5214,-2.5229,-2.5251,-2.5286,-2.5288,-2.531,-2.5337,-2.5341,-2.5311,-2.5366,-2.5378,-2.545,-2.5491,-2.5417,-2.5422,-2.5641,-2.5645,-2.5649,-2.5695,0,0,0,0,0,0,-2.5127,-2.5145,-2.5178,-2.5215,-2.5233,-2.5334,-2.5289,-2.5292,-2.532,-2.5316,-2.5356,-2.536,-2.5365,-2.5442,-2.5456,-2.5497,-2.5426,-2.5637,-2.5643,-2.5648,-2.569,-2.57,-2.5709,0,0,0,0,0,-2.5121,-2.5188,-2.518,-2.5195,-2.5274,-2.5337,-2.5347,-2.5351,-2.5323,-2.5356,-2.5374,-2.5359,-2.5484,-2.5449,-2.5465,-2.5509,-2.5635,-2.5641,-2.5648,-2.5685,-2.5698,-2.5709,0,0,0,0,0,0,-2.5156,-2.5193,-2.5184,-2.5265,-2.5298,-2.5332,-2.5374,-2.5364,-2.5406,-2.54,-2.5404,-2.5413,-2.5487,-2.5505,-2.5465,-2.5594,-2.5556,-2.5565,-2.5579,-2.5591,-2.5601,-2.5594,-2.5431,0,0,0,0,0,-2.5173,-2.522,-2.525,-2.5319,-2.5336,-2.5352,-2.538,-2.538,-2.5414,-2.5428,-2.545,-2.5485,-2.5532,-2.5563,-2.5607,-2.5692,-2.5701,-2.573,-2.574,-2.5748,-2.5756,-2.5802,-2.5815,-2.5672,-2.5672,-2.5672,0,0,-2.5208,-2.5235,-2.5265,-2.5327,-2.5352,-2.5401,-2.5364,-2.5418,-2.5455,-2.5436,-2.5505,-2.5523,-2.5562,-2.564,-2.5676,-2.5658,-2.5797,-2.5756,-2.5762,-2.5766,-2.581,-2.5823,-2.5835,-2.5676,-2.5675,-2.5675,0,0,-2.5299,-2.5324,-2.5383,-2.5409,-2.5448,-2.5459,-2.5473,-2.5509,-2.552,-2.5589,-2.5576,-2.5621,-2.5702,-2.5729,-2.5754,-2.5855,-2.5843,-2.587,-2.592,-2.5964,-2.5976,-2.5986,-2.6021,-2.6034,-2.5878,-2.5878,-2.5878,0,-2.5338,-2.5412,-2.5415,-2.547,-2.5498,-2.5483,-2.5544,-2.5569,-2.5621,-2.564,-2.5619,-2.572,-2.5745,-2.583,-2.5855,-2.5875,-2.5892,-2.5865,-2.5974,-2.5984,-2.5993,-2.6027,-2.604,-2.5881,-2.5881,-2.588,-2.588,0,-2.5458,-2.551,-2.5553,-2.5603,-2.5636,-2.5693,-2.5705,-2.5738,-2.5736,-2.5749,-2.582,-2.5849,-2.5899,-2.592,-2.5918,-2.6005,-2.5992,-2.5972,-2.5934,-2.601,-2.6041,-2.6055,-2.5885,-2.5884,-2.5883,-2.5883,0,0,-2.5572,-2.5623,-2.5639,-2.5661,-2.5703,-2.5743,-2.58,-2.5849,-2.5877,-2.5913,-2.5961,-2.603,-2.6012,-2.604,-2.6042,-2.6081,-2.6159,-2.6057,-2.6058,-2.6074,-2.6255,-2.6269,-2.6284,-2.6151,-2.6154,-2.6156,-2.6252,0,-2.5665,-2.5765,-2.5769,-2.586,-2.5907,-2.5895,-2.5944,-2.5975,-2.5989,-2.6032,-2.6047,-2.6095,-2.6068,-2.6085,-2.6124,-2.6141,-2.6195,-2.6135,-2.6196,-2.6198,-2.6185,-2.6301,-2.6316,-2.6405,-2.6264,-2.6266,-2.6268,0,-2.5787,-2.5826,-2.5922,-2.5957,-2.5977,-2.6021,-2.6066,-2.6107,-2.6142,-2.615,-2.6181,-2.6177,-2.6236,-2.6196,-2.6277,-2.6235,-2.6261,-2.6273,-2.6277,-2.6282,-2.6237,-2.6308,-2.6433,-2.6446,-2.6288,-2.6286,-2.6285,0,-2.5859,-2.5937,-2.6003,-2.6023,-2.6066,-2.6097,-2.6117,-2.6149,-2.6178,-2.6218,-2.6237,-2.6283,-2.6309,-2.6345,-2.6353,-2.6324,-2.6434,-2.6395,-2.6441,-2.6441,-2.6464,-2.6463,-2.6594,-2.6482,-2.6482,-2.6482,-2.6481,0,-2.5962,-2.6021,-2.6036,-2.6078,-2.6143,-2.6148,-2.6213,-2.623,-2.6259,-2.6303,-2.6296,-2.6338,-2.6347,-2.6391,-2.6398,-2.6463,-2.6475,-2.6482,-2.6484,-2.6483,-2.6482,-2.6499,-2.6492,-2.6485,-2.6485,-2.6484,-2.6483,0,-2.6054,-2.6067,-2.6139,-2.6173,-2.6183,-2.623,-2.6259,-2.6299,-2.6312,-2.6368,-2.6381,-2.6402,-2.6453,-2.6465,-2.6526,-2.6531,-2.6608,-2.6604,-2.6596,-2.6596,-2.6641,-2.6636,-2.6788,-2.6807,-2.6683,-2.6684,-2.6685,0,-2.6118,-2.6163,-2.6202,-2.6231,-2.6252,-2.6298,-2.6328,-2.6335,-2.6366,-2.641,-2.6444,-2.6494,-2.6535,-2.6617,-2.6637,-2.6684,-2.668,-2.673,-2.6687,-2.6685,-2.668,-2.6677,-2.6681,-2.6738,-2.6739,-2.674,-2.6741,0,-2.6231,-2.6235,-2.6278,-2.6323,-2.6358,-2.6394,-2.6428,-2.6453,-2.6464,-2.65,-2.6552,-2.6583,-2.6646,-2.6695,-2.6742,-2.6763,-2.6754,-2.6755,-2.6768,-2.6767,-2.676,-2.6764,-2.6618,-2.6751,-2.675,-2.6749,-2.6749,-2.6748,-2.631,-2.6349,-2.6383,-2.6431,-2.6457,-2.6489,-2.6528,-2.6546,-2.6589,-2.664,-2.6641,-2.6698,-2.6732,-2.6795,-2.6818,-2.6862,-2.6847,-2.6866,-2.6871,-2.6875,-2.6879,-2.6754,-2.6871,-2.6871,-2.687,-2.687,-2.687,0,-2.6422,-2.6443,-2.6487,-2.6535,-2.6572,-2.6561,-2.6599,-2.6631,-2.668,-2.6713,-2.6753,-2.6813,-2.6861,-2.6885,-2.6933,-2.6964,-2.6962,-2.6977,-2.6974,-2.6979,-2.689,-2.6873,-2.6978,-2.6978,-2.6978,-2.6978,-2.6978,-2.6978,-2.6484,-2.6549,-2.6558,-2.6636,-2.6657,-2.6711,-2.6734,-2.6764,-2.6789,-2.6856,-2.6896,-2.6912,-2.6941,-2.6991,-2.7035,-2.7041,-2.7059,-2.7076,-2.708,-2.6996,-2.6985,-2.6974,-2.6959,-2.708,-2.708,-2.7165,-2.7165,-2.7166]},{"header":{"parameterUnit":"m.s-1","parameterCategory":1,"la1":30.2991,"la2":30.254,"lo1":-89.0895,"lo2":-89.0444,"dy":0.0017,"dx":0.0017,"nx":28,"ny":28,"refTime":"2024-05-04T21:00:00:Z","depth":0,"parameterNumber":3,"parameterNumberName":"V-component_of_WINDS"},"data":[0,0,0,0,0,0,0,0,0,0,0,0,0,0,0,0,0,0,0,0,0,0,0,0,0,0,0,0,0,0,0,0,0,0,0,0,0,0,0,0,0,0,0,0,0,0,0,0,0,0,0,0,0,0,0,0,0,0,3.0655,3.0655,0,3.0661,3.0661,3.0661,3.0611,3.061,3.0608,3.0607,3.0612,3.0614,3.0615,0,0,0,0,0,0,0,0,0,0,0,0,0,3.06,3.0602,3.0655,3.0655,3.0655,3.0661,3.0661,3.0661,3.0611,3.061,3.0608,3.0606,3.0612,3.0614,3.0615,0,0,0,0,0,0,0,0,0,0,0,0,0,3.0617,3.0602,3.0655,3.0631,3.0629,3.0661,3.0661,3.0661,3.0612,3.061,3.0607,3.0606,3.0611,3.0613,3.0616,3.067,0,0,3.0622,3.0623,0,0,0,0,0,0,0,0,3.0616,3.0619,3.0634,3.0633,3.063,3.0633,3.0644,3.0664,3.0612,3.0618,3.0607,3.0605,3.0621,3.0622,3.0628,3.0671,3.0671,3.0622,3.0624,3.0625,3.0625,0,0,0,0,0,0,0,3.0615,3.0619,3.0657,3.0635,3.0632,3.062,3.062,3.0647,3.0631,3.0617,3.0614,3.0615,3.0619,3.0626,3.0628,3.0671,3.0622,3.0624,3.0626,3.0626,3.076,3.0762,0,0,0,0,0,0,3.0617,3.0618,3.0657,3.0657,3.0618,3.0623,3.0623,3.0634,3.0631,3.0628,3.0617,3.0613,3.0623,3.0625,3.0628,3.0692,3.0625,3.0627,3.0628,3.0758,3.0761,3.0763,0,0,0,0,0,0,3.0616,3.0621,3.0657,3.0637,3.064,3.0626,3.0639,3.0635,3.0642,3.063,3.0627,3.0627,3.0622,3.0624,3.066,3.0692,3.0628,3.0629,3.0755,3.0759,3.0762,3.0821,0,0,0,0,0,0,3.0615,3.0621,3.0642,3.0637,3.0641,3.069,3.0641,3.0637,3.0646,3.064,3.0638,3.0636,3.062,3.0657,3.0663,3.0693,3.0631,3.0752,3.0757,3.0761,3.0817,3.0826,3.0835,0,0,0,0,0,3.0613,3.0658,3.0643,3.0648,3.0667,3.0691,3.0694,3.0675,3.0648,3.0669,3.0662,3.0636,3.0687,3.0662,3.0667,3.0699,3.075,3.0756,3.0761,3.0813,3.0825,3.0835,0,0,0,0,0,0,3.0665,3.0657,3.064,3.0685,3.0689,3.0683,3.0708,3.0688,3.0699,3.0694,3.067,3.067,3.071,3.0708,3.0679,3.0752,3.0714,3.0721,3.0752,3.0763,3.0772,3.0772,3.0633,0,0,0,0,0,3.0682,3.0703,3.0694,3.0734,3.0738,3.0723,3.0733,3.0718,3.0721,3.0723,3.0718,3.0723,3.074,3.0751,3.0766,3.0816,3.0815,3.0841,3.085,3.0858,3.0863,3.0891,3.0902,3.078,3.078,3.078,0,0,3.0717,3.0715,3.0729,3.0745,3.0747,3.0769,3.0725,3.075,3.0766,3.0726,3.076,3.0757,3.0761,3.0804,3.0823,3.0804,3.0897,3.0864,3.087,3.0872,3.0897,3.0909,3.0919,3.0783,3.0783,3.0782,0,0,3.0791,3.0792,3.0826,3.0829,3.0832,3.0822,3.0831,3.0828,3.0824,3.0858,3.0829,3.0848,3.0878,3.0882,3.0888,3.0966,3.0943,3.0971,3.1019,3.1046,3.1055,3.1064,3.1092,3.1102,3.0977,3.0977,3.0977,0,3.0834,3.0866,3.0846,3.0873,3.0881,3.0848,3.0882,3.0886,3.0894,3.09,3.0879,3.0916,3.0916,3.096,3.0979,3.0985,3.0994,3.0971,3.1056,3.1064,3.1071,3.1098,3.1109,3.0981,3.098,3.098,3.098,0,3.0919,3.0942,3.0969,3.0979,3.099,3.1021,3.1005,3.1019,3.1003,3.0996,3.1031,3.103,3.1044,3.1054,3.1039,3.1096,3.1084,3.106,3.1021,3.1087,3.1112,3.1122,3.0986,3.0984,3.0983,3.0983,0,0,3.1026,3.1025,3.1035,3.1039,3.1041,3.1059,3.1088,3.1103,3.1116,3.1123,3.1147,3.1174,3.1152,3.1158,3.1143,3.1167,3.123,3.1139,3.1139,3.1156,3.1294,3.1313,3.1325,3.1214,3.1216,3.1218,3.1294,0,3.1099,3.115,3.1133,3.1185,3.1206,3.1175,3.1201,3.1205,3.1199,3.1216,3.121,3.1229,3.1198,3.1202,3.1224,3.1217,3.1257,3.1212,3.1237,3.1238,3.1238,3.1338,3.1358,3.143,3.1303,3.1305,3.1306,0,3.1191,3.1203,3.1257,3.1256,3.1265,3.1288,3.1301,3.1318,3.1322,3.1317,3.1325,3.1305,3.1335,3.1297,3.1337,3.1307,3.1316,3.1315,3.1317,3.1319,3.1276,3.1343,3.1452,3.1463,3.1321,3.132,3.1319,0,3.1265,3.1294,3.133,3.1335,3.1335,3.1352,3.1353,3.1355,3.1366,3.1377,3.1384,3.1398,3.1406,3.1418,3.1403,3.1376,3.1446,3.1406,3.1442,3.1443,3.1458,3.1457,3.1571,3.1464,3.1464,3.1464,3.1463,0,3.1348,3.1383,3.1363,3.1386,3.1424,3.1404,3.1442,3.1439,3.1442,3.1463,3.1437,3.1458,3.1437,3.1456,3.1444,3.148,3.1483,3.148,3.1476,3.1482,3.1483,3.1488,3.1483,3.1467,3.1466,3.1465,3.1465,0,3.1437,3.1425,3.1463,3.146,3.146,3.1488,3.1486,3.1507,3.1499,3.1527,3.1532,3.1521,3.1542,3.1528,3.1549,3.1541,3.1588,3.1578,3.1587,3.1584,3.1622,3.1619,3.1743,3.1758,3.1641,3.1642,3.1643,0,3.1491,3.1517,3.1517,3.153,3.1533,3.1554,3.1565,3.1546,3.1559,3.1567,3.1587,3.1605,3.162,3.1655,3.1648,3.1664,3.1654,3.1697,3.1656,3.1662,3.1656,3.1654,3.1657,3.1705,3.1706,3.1707,3.1708,0,3.1589,3.1582,3.1599,3.1614,3.1628,3.1639,3.1648,3.166,3.1641,3.1657,3.1678,3.1689,3.1711,3.1731,3.1745,3.1745,3.1724,3.1721,3.173,3.1737,3.1741,3.174,3.161,3.1718,3.1717,3.1717,3.1716,3.1716,3.1662,3.1684,3.1688,3.1708,3.1713,3.1722,3.1742,3.1738,3.1755,3.1772,3.176,3.1786,3.1791,3.1807,3.1811,3.1831,3.1813,3.1827,3.183,3.1834,3.1839,3.1738,3.1833,3.1833,3.1832,3.1832,3.1832,0,3.1759,3.1761,3.1779,3.1793,3.1809,3.1788,3.1797,3.1812,3.1835,3.1841,3.1856,3.1881,3.19,3.1895,3.1912,3.1929,3.192,3.1935,3.1933,3.1934,3.1853,3.1844,3.1942,3.1942,3.1942,3.1942,3.1942,3.1942,3.1812,3.1848,3.1842,3.1881,3.1882,3.1908,3.1915,3.1923,3.1928,3.1958,3.1973,3.1971,3.1973,3.199,3.2007,3.2005,3.2012,3.2031,3.2025,3.195,3.1939,3.1929,3.192,3.2032,3.2032,3.2104,3.2105,3.2105]}]]